Simultaneous Nadir Overpasses (SNOs) Predictions

Prediction of SNOs between GOES-15 and NOAA-20 Satellite Orbit:

Table of predicted SNOs for the next 14.0 days since TLE Epoch: 11/4/2023
Index Date Time (GOES-15) GOES-15 Lat,Lon NOAA-20 Lat,Lon Distance(km) Time Diff (sec)
1 11/04/2023 09:14:47 -0.13, 62.82 -0.23, 62.30 57.80 80
2 11/06/2023 21:20:36 0.12, 61.85 0.19, 61.51 38.41 80
3 11/09/2023 09:21:14 -0.11, 60.90 -0.16, 60.68 25.22 80
4 11/11/2023 21:27:02 0.10, 59.93 0.11, 59.88 5.25 80
5 11/14/2023 09:30:20 -0.09, 59.01 -0.05, 59.05 6.04 80
6 11/16/2023 21:30:48 0.08, 58.06 0.04, 58.26 23.48 80
